Logan, UT

5:21 AM MDT on June 19, 2018 (GMT -0600)
Logan-Cache

Weather History for KLGU - June, 2018

Change the Weather History Date:

Wednesday, June 13, 2018

  Actual Average Record
Temperature  
Mean Temperature 67 °F -  
Max Temperature 91 °F 77 °F 96 °F (1960)
Min Temperature 44 °F 45 °F 33 °F (1981)
Cooling Degree Days 2    
Growing Degree Days 17 (Base 50)    
Moisture  
Dew Point 38 °F    
Average Humidity 38    
Maximum Humidity 76    
Minimum Humidity 15    
Precipitation  
Precipitation 0.00 in - - ()
Sea Level Pressure  
Sea Level Pressure 29.81 in    
Wind  
Wind Speed 4 mph (SW)    
Max Wind Speed 10 mph    
Max Gust Speed -    
Visibility 10 miles    
Events      
Averages and records for this station are not official NWS values.
T = Trace of Precipitation, MM = Missing Value Source: NWS Daily Summary

Daily Weather History Graph

Daily Weather History Graph

Search for Another Location

Airport or City:

Astronomy

Jun. 13, 2018 Rise Set
Actual Time 5:51 AM MDT 9:03 PM MDT
Civil Twilight 5:17 AM MDT 9:37 PM MDT
Nautical Twilight 4:33 AM MDT 10:21 PM MDT
Astronomical Twilight 3:41 AM MDT 11:14 PM MDT
Moon 5:58 AM MDT (6/13) 9:01 PM MDT (6/13)
Length of Visible Light 16h 19m
Length of Day
15h 11m
Waning Crescent, 0% of the Moon is Illuminated
Jun 13
Waning Crescent
Jun 13
New
Jun 20
First Quarter
Jun 27
Full
Jul 6
Last Quarter

Hourly Weather History & Observations

Time (MDT) Temp. Windchill Dew Point Humidity Pressure Visibility Wind Dir Wind Speed Gust Speed Precip Events Conditions
12:51 AM 51.1 °F - 37.0 °F 59% 29.95 in 10.0 mi NW 9.2 mph - N/A   Clear
1:51 AM 51.1 °F - 36.0 °F 56% 29.94 in 10.0 mi Calm Calm - N/A   Clear
2:51 AM 46.0 °F 44.8 °F 37.0 °F 71% 29.93 in 10.0 mi WNW 3.5 mph - N/A   Clear
3:51 AM 46.9 °F - 36.0 °F 66% 29.92 in 10.0 mi Calm Calm - N/A   Clear
4:51 AM 44.1 °F 40.1 °F 37.0 °F 76% 29.91 in 10.0 mi WSW 6.9 mph - N/A   Clear
5:51 AM 45.0 °F 43.5 °F 36.0 °F 71% 29.91 in 10.0 mi NNE 3.5 mph - N/A   Clear
6:51 AM 46.9 °F - 37.9 °F 71% 29.91 in 10.0 mi Calm Calm - N/A   Clear
7:51 AM 52.0 °F - 37.0 °F 57% 29.91 in 10.0 mi Calm Calm - N/A   Clear
8:51 AM 59.0 °F - 36.0 °F 42% 29.91 in 10.0 mi Calm Calm - N/A   Clear
9:51 AM 64.9 °F - 37.0 °F 36% 29.90 in 10.0 mi Variable 3.5 mph - N/A   Clear
10:51 AM 69.1 °F - 36.0 °F 30% 29.88 in 10.0 mi Calm Calm - N/A   Clear
11:51 AM 75.9 °F - 37.9 °F 25% 29.86 in 10.0 mi Calm Calm - N/A   Clear
12:51 PM 82.0 °F - 39.9 °F 22% 29.83 in 10.0 mi SSE 3.5 mph - N/A   Clear
1:51 PM 84.9 °F - 41.0 °F 21% 29.81 in 10.0 mi SW 5.8 mph - N/A   Clear
2:51 PM 88.0 °F - 39.0 °F 18% 29.79 in 10.0 mi SW 10.4 mph - N/A   Clear
3:51 PM 89.1 °F - 36.0 °F 15% 29.76 in 10.0 mi SSW 9.2 mph - N/A   Clear
4:51 PM 90.0 °F - 37.0 °F 15% 29.74 in 10.0 mi SSW 10.4 mph - N/A   Clear
5:51 PM 89.1 °F - 37.9 °F 16% 29.71 in 10.0 mi SSW 9.2 mph - N/A   Clear
6:51 PM 89.1 °F - 39.0 °F 17% 29.68 in 10.0 mi WSW 3.5 mph - N/A   Clear
7:51 PM 89.1 °F - 37.0 °F 16% 29.65 in 10.0 mi Calm Calm - N/A   Clear
8:51 PM 80.1 °F - 45.0 °F 29% 29.64 in 10.0 mi ESE 4.6 mph - N/A   Clear
9:51 PM 72.0 °F - 39.0 °F 30% 29.64 in 10.0 mi Calm Calm - N/A   Clear
10:51 PM 72.0 °F - 39.0 °F 30% 29.63 in 10.0 mi SSW 5.8 mph - N/A   Clear
11:51 PM 72.0 °F - 39.9 °F 31% 29.60 in 10.0 mi South 9.2 mph - N/A   Clear